User: anonymous   Login
Location: Fort Wayne
(41.1310°N, 85.1290°W)
Time: 15:59:05
(UTC-05:00)
Language:

BREEZE-M DEB (TANK) - Orbit

View from above orbital plane
View from above orbital plane
View from above satellite
View from above satellite

Ground track
Ground track

The orbit data is extracted from the following two-line orbital elements,

1 27821U 03024B   14351.46939848  .00007170  00000-0  88494-3 0  5429
2 27821 049.5979 005.5892 4999637 061.1492 036.5968 05.64513402228317
Epoch (UTC): 17 December 2014 11:15:56
Eccentricity: 0.4999637
inclination: 49.5979°
perigee height: 284 km
apogee height: 13606 km
right ascension of ascending node: 5.5892°
argument of perigee: 61.1492°
revolutions per day: 5.64513402
mean anomaly at epoch: 36.5968°
orbit number at epoch: 22831

The dashed part of the orbit path shows where the satellite is in the earth's shadow,  

DLR